FW6321 Weather Reports


time (UTC)temp
F
wind
direction
speed
knots
gust
knots
rain 1hr
in
rain 24hr
in
rain mn
in
humidity
%
barometer
mb
20260508063403 51 75 4.3 7.0 0.00 0.00 0.00 89 1018.7
20260508062853 51 60 5.2 7.0 0.00 0.00 0.00 89 1018.7
20260508062407 51 54 5.2 7.8 0.00 0.00 0.00 89 1018.6
20260508061902 51 71 5.2 7.8 0.00 0.00 0.00 89 1018.6
20260508061356 51 77 4.3 7.0 0.00 0.00 0.00 90 1018.6
20260508060856 51 94 4.3 7.0 0.00 0.00 0.00 90 1018.6
20260508060432 51 54 4.3 7.0 0.00 0.00 0.00 90 1018.6
20260508060027 51 31 3.5 7.0 0.00 0.00 0.00 90 1018.6
20260508054851 50 55 2.6 5.2 0.00 0.00 0.00 90 1018.6
20260508054352 50 52 2.6 5.2 0.00 0.00 0.00 90 1018.6
20260508053939 50 51 2.6 6.1 0.00 0.00 0.00 90 1018.6
20260508052918 50 73 3.5 6.1 0.00 0.00 0.00 90 1018.5
20260508052532 50 39 3.5 6.1 0.00 0.00 0.00 90 1018.5
20260508052113 50 75 3.5 6.1 0.00 0.00 0.00 90 1018.4
20260508050406 50 30 4.3 7.0 0.00 0.00 0.00 90 1018.3
20260508045907 50 81 4.3 7.0 0.00 0.00 0.00 90 1018.3
20260508045503 50 82 3.5 7.0 0.00 0.00 0.00 90 1018.3
20260508045023 50 42 3.5 7.0 0.00 0.00 0.00 90 1018.2
20260508043854 50 74 4.3 7.0 0.00 0.00 0.00 90 1018.2
20260508043349 50 33 4.3 7.0 0.00 0.00 0.00 90 1018.2
20260508042848 50 65 4.3 7.0 0.00 0.00 0.00 90 1018.2
20260508042349 50 60 4.3 7.8 0.00 0.00 0.00 90 1018.2
20260508041847 50 52 5.2 7.8 0.00 0.00 0.00 89 1018.2
20260508041349 50 71 4.3 7.8 0.00 0.00 0.00 89 1018.2
20260508040849 50 73 4.3 7.0 0.00 0.00 0.00 89 1018.2
20260508040350 51 44 5.2 7.0 0.00 0.00 0.00 89 1018.2
20260508035901 51 75 4.3 7.0 0.00 0.00 0.00 89 1018.1
20260508035355 51 65 4.3 7.0 0.00 0.00 0.00 89 1018.2
20260508034850 51 76 4.3 7.0 0.00 0.00 0.00 89 1018.1
20260508034349 51 54 4.3 7.0 0.00 0.00 0.00 88 1018.0
20260508033851 51 81 4.3 7.0 0.00 0.00 0.00 88 1018.0
20260508033348 51 75 5.2 7.0 0.00 0.00 0.00 88 1018.0
20260508032845 51 74 5.2 7.0 0.00 0.00 0.00 88 1018.0
20260508032349 51 67 5.2 7.0 0.00 0.00 0.00 88 1018.0
20260508031854 51 67 5.2 7.0 0.00 0.00 0.00 88 1018.0
20260508031343 51 62 5.2 7.0 0.00 0.00 0.00 88 1018.0
20260508030843 51 68 6.1 7.8 0.00 0.00 0.00 87 1018.0
20260508030344 51 77 5.2 7.8 0.00 0.00 0.00 87 1017.9
20260508025909 51 54 4.3 7.8 0.00 0.00 0.00 87 1017.9
20260508024843 52 62 3.5 6.1 0.00 0.00 0.00 87 1017.9
20260508024341 52 43 3.5 6.1 0.00 0.00 0.00 87 1017.9
20260508023842 52 68 2.6 6.1 0.00 0.00 0.00 87 1017.9
20260508023341 52 63 2.6 5.2 0.00 0.00 0.00 87 1017.9
20260508022841 52 62 1.7 5.2 0.00 0.00 0.00 87 1018.0
20260508022342 52 47 1.7 3.5 0.00 0.00 0.00 86 1017.9
20260508021851 52 44 2.6 3.5 0.00 0.00 0.00 86 1017.9
20260508021341 52 59 2.6 3.5 0.00 0.00 0.00 86 1017.9
20260508020909 52 53 2.6 3.5 0.00 0.00 0.00 86 1017.8
20260508015910 52 54 2.6 5.2 0.00 0.00 0.00 86 1017.9
20260508014839 52 68 2.6 5.2 0.00 0.00 0.00 86 1017.9
20260508014342 52 46 3.5 5.2 0.00 0.00 0.00 85 1017.8
20260508013841 53 60 2.6 5.2 0.00 0.00 0.00 85 1017.8
20260508013339 53 60 3.5 6.1 0.00 0.00 0.00 85 1017.8
20260508012842 53 50 3.5 6.1 0.00 0.00 0.00 85 1017.9
20260508012341 53 71 3.5 6.1 0.00 0.00 0.00 85 1017.8
20260508011921 53 70 3.5 6.1 0.00 0.00 0.00 85 1017.9
20260508010840 53 50 2.6 5.2 0.00 0.00 0.00 85 1017.8
20260508010343 53 76 3.5 6.1 0.00 0.00 0.00 84 1017.9
20260508005839 53 57 3.5 6.1 0.00 0.00 0.00 84 1017.9
20260508005339 53 69 3.5 6.1 0.00 0.00 0.00 84 1017.8
20260508004840 53 61 3.5 7.0 0.00 0.00 0.00 84 1018.0
20260508004338 53 66 3.5 7.0 0.00 0.00 0.00 84 1018.0
20260508003841 53 62 2.6 5.2 0.00 0.00 0.00 84 1017.9
20260508002847 53 62 2.6 5.2 0.00 0.00 0.00 83 1018.0
20260508002438 53 67 2.6 5.2 0.00 0.00 0.00 83 1018.0
20260508001338 53 64 2.6 5.2 0.00 0.00 0.00 82 1018.0
20260508000841 53 62 2.6 5.2 0.00 0.00 0.00 81 1017.9
20260508000338 54 62 2.6 5.2 0.00 0.00 0.00 81 1017.9
20260507235838 54 67 2.6 5.2 0.00 0.00 0.00 81 1018.0
20260507235338 54 66 2.6 5.2 0.00 0.00 0.00 80 1018.0
20260507234836 54 56 2.6 5.2 0.00 0.00 0.00 80 1018.0
20260507234411 54 59 2.6 5.2 0.00 0.00 0.00 80 1018.1
20260507233337 54 50 2.6 5.2 0.00 0.00 0.00 79 1018.2
20260507232838 54 50 2.6 3.5 0.00 0.00 0.00 78 1018.2
20260507232337 54 63 1.7 3.5 0.00 0.00 0.00 78 1018.1
20260507231911 54 63 1.7 2.6 0.00 0.00 0.00 77 1018.1
20260507230836 55 63 1.7 3.5 0.00 0.00 0.00 76 1018.1
20260507230344 55 73 2.6 3.5 0.00 0.00 0.00 76 1018.2
20260507225837 55 68 1.7 3.5 0.00 0.00 0.00 75 1018.2
20260507225332 55 58 2.6 3.5 0.00 0.00 0.00 75 1018.2
20260507224915 55 50 2.6 5.2 0.00 0.00 0.00 75 1018.2
20260507223831 55 62 3.5 6.1 0.00 0.00 0.00 74 1018.2
20260507223332 55 57 2.6 7.0 0.00 0.00 0.00 75 1018.2
20260507222832 55 357 2.6 7.0 0.00 0.00 0.00 75 1018.2
20260507222333 55 38 1.7 7.0 0.00 0.00 0.00 75 1018.2
20260507221909 55 19 1.7 4.3 0.00 0.00 0.00 75 1018.2
20260507220830 55 56 1.7 4.3 0.00 0.00 0.00 75 1018.2
20260507220331 55 33 1.7 4.3 0.00 0.00 0.00 75 1018.2
20260507215834 56 46 1.7 3.5 0.00 0.00 0.00 75 1018.0
20260507215330 56 36 1.7 5.2 0.00 0.00 0.00 75 1018.1
20260507214832 56 72 1.7 5.2 0.00 0.00 0.00 75 1018.0
20260507214332 56 39 1.7 4.3 0.00 0.00 0.00 74 1018.1
20260507213923 56 355 2.6 6.1 0.00 0.00 0.00 74 1017.9
20260507212332 56 54 1.7 5.2 0.00 0.00 0.00 73 1018.0
20260507211831 56 48 2.6 5.2 0.00 0.00 0.00 73 1018.0
20260507211332 56 48 2.6 5.2 0.00 0.00 0.00 73 1018.0
20260507210853 56 62 2.6 5.2 0.00 0.00 0.00 73 1018.1
20260507205826 56 68 1.7 5.2 0.00 0.00 0.00 73 1018.0
20260507205322 56 62 1.7 5.2 0.00 0.00 0.00 73 1018.0
20260507204823 56 44 1.7 5.2 0.00 0.00 0.00 73 1017.9
20260507204330 56 44 2.6 3.5 0.00 0.00 0.00 73 1017.8
20260507203822 56 60 2.6 3.5 0.00 0.00 0.00 73 1017.8
20260507203352 56 68 2.6 5.2 0.00 0.00 0.00 73 1017.7
20260507202322 56 67 2.6 5.2 0.00 0.00 0.00 72 1017.8
20260507201821 56 67 2.6 5.2 0.00 0.00 0.00 72 1017.7
20260507201323 56 72 2.6 6.1 0.00 0.00 0.00 72 1017.7
20260507200821 56 62 3.5 6.1 0.00 0.00 0.00 71 1017.6
20260507200320 56 64 2.6 6.1 0.00 0.00 0.00 71 1017.6
20260507195844 56 42 2.6 5.2 0.00 0.00 0.00 71 1017.6
20260507194821 56 75 2.6 6.1 0.00 0.00 0.00 71 1017.5
20260507194318 57 58 2.6 6.1 0.00 0.00 0.00 71 1017.5
20260507193815 57 58 3.5 6.1 0.00 0.00 0.00 70 1017.4
20260507193316 57 58 3.5 7.0 0.00 0.00 0.00 70 1017.3
20260507192815 57 74 3.5 7.0 0.00 0.00 0.00 70 1017.3
20260507192345 57 72 3.5 7.8 0.00 0.00 0.00 70 1017.2
20260507191313 57 62 3.5 7.8 0.00 0.00 0.00 70 1017.2
20260507190818 57 53 3.5 8.7 0.00 0.00 0.00 69 1017.2
20260507190317 57 75 3.5 8.7 0.00 0.00 0.00 69 1017.2
20260507185816 57 75 3.5 6.1 0.00 0.00 0.00 70 1017.2
20260507185313 57 66 3.5 7.0 0.00 0.00 0.00 70 1017.2
20260507184843 57 60 2.6 7.0 0.00 0.00 0.00 70 1017.2
20260507183812 58 48 2.6 3.5 0.00 0.00 0.00 69 1017.2
20260507183313 58 62 1.7 2.6 0.00 0.00 0.00 69 1017.1
20260507182859 58 67 1.7 3.5 0.00 0.00 0.00 69 1017.1
20260507181808 58 75 1.7 5.2 0.00 0.00 0.00 68 1017.1
20260507181308 58 79 2.6 6.1 0.00 0.00 0.00 66 1017.0
20260507180807 58 70 2.6 6.1 0.00 0.00 0.00 67 1017.1
20260507180306 58 79 1.7 5.2 0.00 0.00 0.00 66 1017.1
20260507175810 58 78 1.7 3.5 0.00 0.00 0.00 66 1017.0
20260507175340 58 78 1.7 3.5 0.00 0.00 0.00 65 1016.9
20260507174305 58 76 1.7 2.6 0.00 0.00 0.00 65 1016.9
20260507173803 58 69 1.7 2.6 0.00 0.00 0.00 66 1017.0
20260507173306 58 67 1.7 3.5 0.00 0.00 0.00 66 1017.0
20260507172800 58 68 1.7 3.5 0.00 0.00 0.00 64 1016.9
20260507172301 59 44 0.9 1.7 0.00 0.00 0.00 66 1017.0
20260507171758 59 31 1.7 2.6 0.00 0.00 0.00 67 1017.0
20260507171257 59 35 1.7 3.5 0.00 0.00 0.00 64 1017.0
20260507170837 59 45 1.7 3.5 0.00 0.00 0.00 62 1017.0
20260507165819 59 39 2.6 4.3 0.00 0.00 0.00 63 1017.0
20260507164758 59 39 1.7 3.5 0.00 0.00 0.00 62 1016.9
20260507164257 59 41 2.6 3.5 0.00 0.00 0.00 62 1016.9
20260507163751 59 36 3.5 7.0 0.00 0.00 0.00 61 1016.9
20260507163250 59 31 3.5 7.0 0.00 0.00 0.00 62 1016.9
20260507162754 59 29 2.6 5.2 0.00 0.00 0.00 62 1016.9
20260507162252 60 65 2.6 5.2 0.00 0.00 0.00 60 1016.9
20260507161753 60 57 2.6 5.2 0.00 0.00 0.00 60 1016.9
20260507161253 60 79 1.7 5.2 0.00 0.00 0.00 60 1016.9
20260507160818 60 81 2.6 5.2 0.00 0.00 0.00 62 1016.9
20260507155753 60 23 3.5 6.1 0.00 0.00 0.00 61 1016.9
20260507155315 60 39 2.6 7.0 0.00 0.00 0.00 61 1016.8
20260507154249 60 114 0.9 2.6 0.00 0.00 0.00 60 1016.8
20260507153746 60 66 1.7 3.5 0.00 0.00 0.00 58 1016.9
20260507153246 60 30 1.7 3.5 0.00 0.00 0.00 57 1016.8
20260507152748 60 70 1.7 7.0 0.00 0.00 0.00 59 1016.7
20260507152244 60 138 2.6 7.0 0.00 0.00 0.00 58 1016.8
20260507151743 60 115 1.7 6.1 0.00 0.00 0.00 60 1016.7
20260507151322 60 78 1.7 3.5 0.00 0.00 0.00 59 1016.8
20260507150244 60 69 3.5 6.1 0.00 0.00 0.00 59 1016.8
20260507145743 60 63 4.3 8.7 0.00 0.00 0.00 58 1016.7
20260507145241 60 75 4.3 8.7 0.00 0.00 0.00 59 1016.8
20260507144809 60 72 4.3 7.0 0.00 0.00 0.00 60 1016.7
20260507143734 60 60 4.3 7.8 0.00 0.00 0.00 59 1016.8
20260507143308 60 78 4.3 7.8 0.00 0.00 0.00 60 1016.8
20260507142234 60 73 2.6 6.1 0.00 0.00 0.00 60 1016.8
20260507141732 60 48 3.5 7.0 0.00 0.00 0.00 59 1016.8
20260507141230 60 83 2.6 7.0 0.00 0.00 0.00 58 1016.8
20260507140758 61 39 2.6 8.7 0.00 0.00 0.00 56 1016.8
20260507135731 61 47 3.5 8.7 0.00 0.00 0.00 54 1016.9
20260507135339 62 32 3.5 8.7 0.00 0.00 0.00 51 1016.9
20260507133813 62 339 3.5 8.7 0.00 0.00 0.00 52 1017.0
20260507132753 61 260 3.5 8.7 0.00 0.00 0.00 47 1016.9
20260507131726 62 4 5.2 9.6 0.00 0.00 0.00 54 1016.9
20260507131221 62 12 3.5 8.7 0.00 0.00 0.00 53 1016.8
20260507130731 60 75 2.6 6.1 0.00 0.00 0.00 57 1016.8
20260507130252 59 73 2.6 7.0 0.00 0.00 0.00 59 1016.8
20260507125257 60 10 2.6 7.8 0.00 0.00 0.00 55 1016.9
20260507124225 60 15 4.3 9.6 0.00 0.00 0.00 55 1016.9
20260507123733 61 21 3.5 9.6 0.00 0.00 0.00 59 1016.9
20260507123228 60 29 3.5 7.8 0.00 0.00 0.00 54 1016.8
20260507122725 59 38 5.2 9.6 0.00 0.00 0.00 56 1016.9
20260507122223 60 15 5.2 11.3 0.00 0.00 0.00 57 1016.9
20260507121723 61 45 4.3 11.3 0.00 0.00 0.00 60 1016.9
20260507121219 61 325 3.5 9.6 0.00 0.00 0.00 62 1016.9
20260507120732 61 342 2.6 6.1 0.00 0.00 0.00 66 1016.9
20260507120221 59 67 2.6 7.0 0.00 0.00 0.00 58 1016.9
20260507115716 59 19 3.5 7.8 0.00 0.00 0.00 62 1017.0
20260507115218 60 82 3.5 7.8 0.00 0.00 0.00 60 1017.0
20260507114715 61 355 3.5 7.8 0.00 0.00 0.00 62 1017.0
20260507114217 60 52 3.5 7.8 0.00 0.00 0.00 62 1017.0
20260507113719 60 49 3.5 7.8 0.00 0.00 0.00 61 1017.1
20260507113250 61 58 5.2 9.6 0.00 0.00 0.00 62 1017.0
20260507112211 60 339 3.5 10.4 0.00 0.00 0.00 67 1017.0
20260507111712 60 29 3.5 9.6 0.00 0.00 0.00 67 1017.1
20260507111210 60 38 4.3 9.6 0.00 0.00 0.00 63 1017.1
20260507110714 61 32 3.5 8.7 0.00 0.00 0.00 68 1017.2
20260507110211 61 8 2.6 7.8 0.00 0.00 0.00 67 1017.2
20260507105712 60 97 2.6 9.6 0.00 0.00 0.00 66 1017.2
20260507105210 61 17 3.5 9.6 0.00 0.00 0.00 69 1017.3
20260507104710 60 66 5.2 11.3 0.00 0.00 0.00 67 1017.3
20260507104213 60 16 4.3 11.3 0.00 0.00 0.00 68 1017.3
20260507103714 60 312 2.6 10.4 0.00 0.00 0.00 69 1017.2
20260507103213 60 55 3.5 8.7 0.00 0.00 0.00 69 1017.3
20260507102710 59 54 3.5 8.7 0.00 0.00 0.00 67 1017.3
20260507102203 59 325 3.5 7.0 0.00 0.00 0.00 70 1017.2
20260507101704 59 12 3.5 8.7 0.00 0.00 0.00 71 1017.2
20260507101205 58 1 4.3 8.7 0.00 0.00 0.00 67 1017.2
20260507100741 58 27 3.5 8.7 0.00 0.00 0.00 68 1017.3
20260507095712 58 12 3.5 8.7 0.00 0.00 0.00 69 1017.2
20260507095224 58 44 4.3 9.6 0.00 0.00 0.00 71 1017.1
20260507094201 58 339 5.2 11.3 0.00 0.00 0.00 69 1017.2
20260507093703 58 31 3.5 8.7 0.00 0.00 0.00 73 1017.1
20260507093304 57 32 3.5 7.8 0.00 0.00 0.00 72 1017.1
20260507091703 57 37 4.3 8.7 0.00 0.00 0.00 73 1017.1
20260507091202 56 330 3.5 7.8 0.00 0.00 0.00 75 1017.1
20260507090702 56 330 2.6 7.8 0.00 0.00 0.00 75 1017.0
20260507090201 56 339 3.5 7.8 0.00 0.00 0.00 75 1017.1
20260507085704 56 339 4.3 8.7 0.00 0.00 0.00 75 1016.9
20260507085202 56 348 4.3 9.6 0.00 0.00 0.00 76 1017.0
20260507084701 56 316 4.3 11.3 0.00 0.00 0.00 75 1017.0
20260507084202 56 325 4.3 11.3 0.00 0.00 0.00 76 1017.0
20260507083802 55 26 3.5 8.7 0.00 0.00 0.00 76 1016.9
20260507082703 55 31 4.3 8.7 0.00 0.00 0.00 77 1017.0
20260507082230 55 335 5.2 8.7 0.00 0.00 0.00 76 1017.0
20260507081201 55 318 4.3 7.0 0.00 0.00 0.00 78 1017.0
20260507080752 55 12 4.3 8.7 0.00 0.00 0.00 79 1017.0
20260507075701 54 4 3.5 7.0 0.00 0.00 0.00 80 1016.9
20260507075200 54 19 3.5 7.0 0.00 0.00 0.00 81 1016.9
20260507074703 53 17 3.5 7.8 0.00 0.00 0.00 82 1016.9
20260507074202 53 287 3.5 7.8 0.00 0.00 0.00 83 1016.8
20260507073702 53 1 4.3 8.7 0.00 0.00 0.00 84 1016.8
20260507073201 53 18 3.5 8.7 0.00 0.00 0.00 85 1016.8
20260507072729 52 22 3.5 7.8 0.00 0.00 0.00 86 1016.8
20260507071702 52 343 3.5 7.8 0.00 0.00 0.00 87 1016.7
20260507071203 51 325 3.5 7.8 0.00 0.00 0.00 87 1016.7
20260507070822 51 33 2.6 6.1 0.00 0.00 0.00 88 1016.7
20260507070503 51 352 2.6 5.2 0.00 0.00 0.00 88 1016.7
20260507063703 50 325 4.3 7.0 0.00 0.00 0.00 90 1016.4